Location: ?????
(31.7405°N, 35.1927°E)
Time: 07:43:08
(UTC+00:00)

STARLINK-1063 - Pass Details

Date: 17 February 2020
Orbit: 548 x 551 km, 53.0° (Epoch: 04 April)

Event Time Altitude Azimuth Distance (km) Brightness Sun altitude
Exits shadow 03:28:46 12° 310° (NW) 1,684 5.6 -11.5°
Maximum altitude 03:32:31 65° 229° (SW) 605 3.6 -10.7°
Drops below altitude 10° 03:36:36 10° 148° (SSE) 1,817 6.9 -9.9°
Sets 03:38:50 0° 145° (SE) 2,707 7.9 -9.4°
